LOWSLOWL

Guest
Details From LOWS - Salzburg Maxglan
To LOWL - Linz Hoersching
Flight Number -
Tags decoded
Created
Modified
Stats Distance 60 nm / 111 km
Max Altitude 0 ft / 0 m
Waypoints 3
Social Downloads 0
Likes 0
Share VATSIM

Download

Looking for another format? Having issues loading an existing format? Contact us
Advertisement - Login to hide

Notes

Requested: LOWS OGRUB LOWL

Route

LOWS OGRUB LOWL

ID Type Via Altitude Latitude Longitude Leg Dist Tot Dist Heading (true) Name
O LOWS APT - 0 ft / 0 m 47.79333˚ 13.00433˚ - 0 nm - Salzburg Maxglan
OGRUB FIX - 0 ft / 0 m 47.91581˚ 13.93003˚ 38 nm 38 nm 79° / 79° -
O LOWL APT - 0 ft / 0 m 48.23322˚ 14.18751˚ 21 nm 59 nm 28° / 29° Linz Hoersching

Altitude Profile

Advertisement - Login to hide

LOWS

Details ICAO LOWS (SZG)
Name Salzburg Maxglan
Region Austria
Timezone Europe/Vienna (UTC+1.0)
Stats Elevation 1,411 ft / 430 m (AMSL)
Location 47.793333° 13.004333°
Runways 1
Magnetic Variation 3.427° E

METAR

LOWS 140020Z AUTO 17008KT 130V200 9999 FEW044 SCT060 BKN070 02/M03 Q1001

Decode

TAF

TAF TAF LOWS 132315Z 1400/1424 15007KT 9999 FEW080 BKN100 TX06/1413Z TN01/1400Z TEMPO 1400/1404 -SN SCT030 BKN040 PROB30 TEMPO 1400/1406 -FZRA FEW030 BKN050 TEMPO 1404/1410 -SHRA SCT050 BKN070 TEMPO 1405/1413 28015G25KT TEMPO 1419/1424 -SN

Decode

Departure Runways

ID Width Length Bearing (true) Bearing (mag) Surface Threshold Offset Overrun Length
16 148 ft / 45 m 9,024 ft / 2,751 m 157.08° 153.65° Concrete 656 ft / 200 m 0 ft / 0 m
34 148 ft / 45 m 9,024 ft / 2,751 m 337.09° 333.66° Concrete 787 ft / 240 m 0 ft / 0 m

LOWL

Details ICAO LOWL (LNZ)
Name Linz Hoersching
Region Austria
Timezone Europe/Vienna (UTC+1.0)
Stats Elevation 978 ft / 298 m (AMSL)
Location 48.233219° 14.187513°
Runways 1
Magnetic Variation 3.726° E

METAR

LOWL 140020Z AUTO VRB01KT 9999 BKN080 M02/M04 Q1001

Decode

TAF

TAF LOWL 132315Z 1400/1424 26005KT 8000 SCT060 BKN090 TX06/1413Z TNM01/1402Z TEMPO 1402/1409 VRB02KT -RA BKN050 PROB40 TEMPO 1402/1407 4500 -FZRA TEMPO 1408/1414 28020G30KT -SHRA BKN050 BECMG 1417/1419 VRB02KT 9999 BKN050 PROB40 TEMPO 1420/1424 7000 SHRA

Decode

Destination Runways

ID Width Length Bearing (true) Bearing (mag) Surface Threshold Offset Overrun Length
09 197 ft / 60 m 9,802 ft / 2,988 m 86.49° 82.76° Asphalt 820 ft / 250 m 0 ft / 0 m
27 197 ft / 60 m 9,802 ft / 2,988 m 266.52° 262.79° Asphalt 492 ft / 150 m 0 ft / 0 m

Approach Navaids

Runway Type Ident Frequency Range Bearing (true) Bearing (mag) Slope Elevation
09 Localiser OEM 110.55 MHz 18 nm / 33 km 86.63° 82.91° - 955 ft / 291 m (AMSL)
09 Glidescope OEM 110.55 MHz 12 nm / 22 km 86.00° 82.27° 3.00° 964 ft / 294 m (AMSL)
09 DME OEM 110.55 MHz 18 nm / 33 km - - - 964 ft / 294 m (AMSL)
27 Localiser OEL 109.30 MHz 18 nm / 33 km 266.76° 263.04° - 978 ft / 298 m (AMSL)
27 Glidescope OEL 109.30 MHz 10 nm / 19 km 266.50° 262.77° 3.00° 996 ft / 304 m (AMSL)
27 DME OEL 109.30 MHz 18 nm / 33 km - - - 996 ft / 304 m (AMSL)

Popular Alternatives